When you browse on this site, cookies collect data to enhance your experience and personalize the content and advertising you see.
Visit our Privacy Policy to learn more. By continuing to use the site, you agree to this use of cookies and data.
  • In Czech Republic
  • List of Countries
  • For 7 days
  • Water Temperature
  • Satellite Maps
  • Weather Map
  • Weather Widgets
  • user-avatar
    Login

    Hourly Weather Giumri

    Today, 22 March, Friday

    Time Temperature Precipitation Wind Pressure Humidity
    00:00 -2°C° 0 mm 2 mps 635 mmHg 79%
    01:00 -2°C° 0 mm 2 mps 634 mmHg 79%
    02:00 -2°C° 0 mm 2 mps 634 mmHg 80%
    03:00 -2°C° 0 mm 3 mps 634 mmHg 83%
    04:00 -2°C° 0 mm 2 mps 634 mmHg 83%
    05:00 -3°C° 0 mm 2 mps 634 mmHg 83%
    06:00 -3°C° 0 mm 2 mps 634 mmHg 83%
    07:00 -2°C° 0 mm 2 mps 634 mmHg 79%
    08:00 -1°C° 0 mm 2 mps 634 mmHg 74%
    09:00 +2°C° 0 mm 2 mps 635 mmHg 70%
    10:00 +2°C° 0 mm 2 mps 634 mmHg 66%
    11:00 +3°C° 0 mm 2 mps 634 mmHg 62%
    12:00 +4°C° 0 mm 2 mps 634 mmHg 58%
    13:00 +4°C° 0 mm 2 mps 634 mmHg 57%
    14:00 +4°C° 0 mm 2 mps 634 mmHg 56%
    15:00 +4°C° 0 mm 2 mps 633 mmHg 55%
    16:00 +3°C° 0 mm 2 mps 633 mmHg 57%
    17:00 +2°C° 0 mm 2 mps 633 mmHg 60%
    18:00 +1°C° 0 mm 2 mps 633 mmHg 62%
    19:00 -1°C° 0 mm 2 mps 633 mmHg 64%
    20:00 0°C° 0 mm 1 mps 633 mmHg 67%
    21:00 -1°C° 0 mm 1 mps 633 mmHg 69%
    22:00 -2°C° 0 mm 1 mps 633 mmHg 69%
    23:00 -2°C° 0 mm 1 mps 633 mmHg 69%

    Tomorrow, 23 March, Saturday

    Time Temperature Precipitation Wind Pressure Humidity
    00:00 -3°C° 0 mm 1 mps 633 mmHg 69%
    01:00 -3°C° 0 mm 1 mps 633 mmHg 68%
    02:00 -3°C° 0 mm 1 mps 632 mmHg 68%
    03:00 -3°C° 0 mm 1 mps 632 mmHg 67%
    04:00 -3°C° 0 mm 1 mps 632 mmHg 67%
    05:00 -3°C° 0 mm 1 mps 632 mmHg 68%
    06:00 -3°C° 0 mm 1 mps 632 mmHg 68%
    07:00 -2°C° 0 mm 1 mps 632 mmHg 68%
    08:00 0°C° 0 mm 1 mps 632 mmHg 68%
    09:00 +1°C° 0 mm 1 mps 632 mmHg 67%
    10:00 +1°C° 0 mm 2 mps 632 mmHg 65%
    11:00 +1°C° 0 mm 3 mps 632 mmHg 62%
    12:00 +2°C° 0 mm 3 mps 631 mmHg 60%
    13:00 +3°C° 0 mm 3 mps 631 mmHg 58%
    14:00 +3°C° 0 mm 4 mps 631 mmHg 57%
    15:00 +3°C° 0 mm 4 mps 630 mmHg 55%
    16:00 +3°C° 0 mm 3 mps 630 mmHg 57%
    17:00 +2°C° 0 mm 3 mps 630 mmHg 59%
    18:00 +2°C° 0 mm 2 mps 630 mmHg 61%
    19:00 +2°C° 0 mm 2 mps 630 mmHg 64%
    20:00 +2°C° 0 mm 1 mps 629 mmHg 66%
    21:00 +1°C° 0 mm 1 mps 629 mmHg 69%
    22:00 0°C° 0 mm 1 mps 629 mmHg 70%
    23:00 0°C° 0 mm 1 mps 629 mmHg 71%

    Day after tomorrow, 24 March, Sunday

    Time Temperature Precipitation Wind Pressure Humidity
    00:00 0°C° 0 mm 1 mps 629 mmHg 72%
    01:00 0°C° 0.1 mm 1 mps 628 mmHg 73%
    02:00 0°C° 0.1 mm 1 mps 628 mmHg 74%
    03:00 0°C° 0.1 mm 1 mps 628 mmHg 75%
    04:00 0°C° 0.4 mm 1 mps 628 mmHg 78%
    05:00 0°C° 0.4 mm 1 mps 627 mmHg 82%
    06:00 0°C° 0.4 mm 1 mps 627 mmHg 85%
    07:00 -1°C° 0.4 mm 2 mps 628 mmHg 83%
    08:00 +1°C° 0.4 mm 2 mps 628 mmHg 80%
    09:00 +2°C° 0.4 mm 2 mps 628 mmHg 78%
    10:00 +2°C° 0.5 mm 2 mps 628 mmHg 79%
    11:00 +2°C° 0.5 mm 2 mps 627 mmHg 80%
    12:00 +1°C° 0.5 mm 3 mps 627 mmHg 81%
    13:00 +1°C° 0.6 mm 3 mps 627 mmHg 81%
    14:00 +1°C° 0.6 mm 3 mps 627 mmHg 80%
    15:00 0°C° 0.6 mm 4 mps 626 mmHg 80%
    16:00 -1°C° 1 mm 4 mps 627 mmHg 83%
    17:00 -1°C° 1 mm 4 mps 627 mmHg 85%
    18:00 -2°C° 1 mm 5 mps 627 mmHg 87%
    19:00 -3°C° 0.7 mm 4 mps 627 mmHg 87%
    20:00 -3°C° 0.7 mm 4 mps 628 mmHg 86%
    21:00 -2°C° 0.7 mm 3 mps 628 mmHg 85%
    22:00 -2°C° 0.2 mm 3 mps 628 mmHg 85%
    23:00 -4°C° 0.2 mm 3 mps 628 mmHg 85%

    25 March, Monday

    Time Temperature Precipitation Wind Pressure Humidity
    00:00 -4°C° 0.2 mm 3 mps 628 mmHg 86%
    01:00 -4°C° 0 mm 3 mps 628 mmHg 86%
    02:00 -4°C° 0 mm 2 mps 628 mmHg 86%
    03:00 -4°C° 0 mm 2 mps 628 mmHg 85%
    04:00 -4°C° 0 mm 2 mps 628 mmHg 85%
    05:00 -4°C° 0 mm 2 mps 627 mmHg 85%
    06:00 -4°C° 0 mm 2 mps 627 mmHg 84%
    07:00 -2°C° 0 mm 2 mps 628 mmHg 83%
    08:00 -1°C° 0 mm 2 mps 628 mmHg 83%
    09:00 +1°C° 0 mm 3 mps 628 mmHg 82%
    10:00 +1°C° 0 mm 3 mps 627 mmHg 82%
    11:00 +2°C° 0 mm 3 mps 627 mmHg 82%
    12:00 +3°C° 0 mm 4 mps 627 mmHg 82%
    13:00 +3°C° 0 mm 4 mps 626 mmHg 80%
    14:00 +3°C° 0 mm 4 mps 626 mmHg 79%
    15:00 +2°C° 0 mm 5 mps 626 mmHg 77%
    16:00 +2°C° 0 mm 5 mps 625 mmHg 78%
    17:00 +1°C° 0 mm 5 mps 625 mmHg 79%
    18:00 0°C° 0 mm 5 mps 625 mmHg 80%
    19:00 0°C° 0.1 mm 4 mps 625 mmHg 81%
    20:00 0°C° 0.1 mm 3 mps 626 mmHg 82%
    21:00 0°C° 0.1 mm 3 mps 626 mmHg 83%
    22:00 0°C° 0.2 mm 3 mps 626 mmHg 84%
    23:00 +1°C° 0.2 mm 2 mps 626 mmHg 85%

    26 March, Tuesday

    Time Temperature Precipitation Wind Pressure Humidity
    00:00 +1°C° 0.2 mm 2 mps 626 mmHg 85%
    01:00 +1°C° 0.3 mm 2 mps 626 mmHg 86%
    02:00 +1°C° 0.3 mm 2 mps 626 mmHg 87%
    03:00 -1°C° 0.3 mm 2 mps 626 mmHg 87%
    04:00 -1°C° 0.3 mm 2 mps 627 mmHg 87%
    05:00 +1°C° 0.3 mm 1 mps 627 mmHg 87%
    06:00 +1°C° 0.3 mm 1 mps 627 mmHg 87%
    07:00 +2°C° 0.2 mm 1 mps 627 mmHg 85%
    08:00 +2°C° 0.2 mm 2 mps 628 mmHg 82%
    09:00 +3°C° 0.2 mm 2 mps 628 mmHg 80%
    10:00 +3°C° 0 mm 2 mps 628 mmHg 79%
    11:00 +3°C° 0 mm 3 mps 627 mmHg 77%
    12:00 +4°C° 0 mm 3 mps 627 mmHg 76%
    13:00 +4°C° 0 mm 3 mps 627 mmHg 75%
    14:00 +4°C° 0 mm 3 mps 627 mmHg 75%
    15:00 +4°C° 0 mm 3 mps 627 mmHg 74%
    16:00 +4°C° 0 mm 3 mps 627 mmHg 76%
    17:00 +3°C° 0 mm 3 mps 627 mmHg 77%
    18:00 +2°C° 0 mm 3 mps 627 mmHg 79%
    19:00 +2°C° 0 mm 2 mps 628 mmHg 80%
    20:00 +1°C° 0 mm 2 mps 628 mmHg 82%
    21:00 +1°C° 0 mm 2 mps 628 mmHg 84%
    22:00 -1°C° 0 mm 2 mps 629 mmHg 84%
    23:00 -1°C° 0 mm 2 mps 629 mmHg 84%

    27 March, Wednesday

    Time Temperature Precipitation Wind Pressure Humidity
    00:00 +1°C° 0 mm 1 mps 629 mmHg 84%
    01:00 +1°C° 0 mm 1 mps 629 mmHg 83%
    02:00 0°C° 0 mm 1 mps 629 mmHg 83%
    03:00 0°C° 0 mm 1 mps 629 mmHg 82%
    04:00 0°C° 0 mm 1 mps 630 mmHg 82%
    05:00 0°C° 0 mm 1 mps 630 mmHg 81%
    06:00 0°C° 0 mm 1 mps 631 mmHg 80%
    07:00 +1°C° 0 mm 1 mps 631 mmHg 77%
    08:00 +2°C° 0 mm 0 mps 632 mmHg 74%
    09:00 +3°C° 0 mm 0 mps 632 mmHg 70%
    10:00 +5°C° 0 mm 1 mps 632 mmHg 70%
    11:00 +6°C° 0 mm 1 mps 632 mmHg 70%
    12:00 +5°C° 0 mm 2 mps 633 mmHg 70%
    13:00 +6°C° 0 mm 2 mps 633 mmHg 69%
    14:00 +6°C° 0 mm 2 mps 633 mmHg 68%
    15:00 +6°C° 0 mm 2 mps 633 mmHg 67%
    16:00 +7°C° 0.1 mm 1 mps 633 mmHg 68%
    17:00 +6°C° 0.1 mm 1 mps 633 mmHg 68%
    18:00 +6°C° 0.1 mm 1 mps 633 mmHg 69%
    19:00 +5°C° 0 mm 1 mps 633 mmHg 71%
    20:00 +4°C° 0 mm 1 mps 634 mmHg 74%
    21:00 +3°C° 0 mm 1 mps 634 mmHg 76%
    22:00 +3°C° 0 mm 1 mps 634 mmHg 77%
    23:00 +2°C° 0 mm 1 mps 634 mmHg 78%
    Show more